Weather History for Cooperstown, ND

Change the Weather History Date:

Saturday, January 12, 2013

  Actual Average (KJMS) Record (KJMS)
Temperature  
Mean Temperature -1 °F 10 °F  
Max Temperature 5 °F 20 °F 52 °F (1987)
Min Temperature -7 °F 0 °F -39 °F (1912)
Degree Days  
Heating Degree Days 66 55  
Month to date heating degree days 658  
Since 1 July heating degree days 4318  
Cooling Degree Days 0 0  
Month to date cooling degree days 0  
Year to date cooling degree days 0  
Moisture  
Dew Point -4 °F    
Average Humidity 85    
Maximum Humidity 92    
Minimum Humidity 72    
Precipitation  
Precipitation 1.05 in 0.01 in 0.42 in (1972)
Month to date precipitation 0.19  
Year to date precipitation 0.19  
Sea Level Pressure  
Sea Level Pressure 29.91 in    
Wind  
Wind Speed 24 mph (NNW)    
Max Wind Speed 31 mph    
Max Gust Speed 39 mph    
Visibility 6 miles    
Events Rain , Snow    
T = Trace of Precipitation, MM = Missing Value Source: NWS Daily Summary

Daily Weather History Graph

Daily Weather History Graph

Search for Another Location

Airport:

Trip Planner

Search our weather history database for the weather conditions in past years. The results will help you decide how hot, cold, wet, or windy it might be!

Date:

Astronomy

Jan. 12, 2013 Rise Set
Actual Time 8:16 AM CST 5:05 PM CST
Civil Twilight 7:42 AM CST 5:40 PM CST
Nautical Twilight 7:03 AM CST 6:18 PM CST
Astronomical Twilight 6:26 AM CST 6:55 PM CST
Moon 8:29 AM CST (1/12) 6:44 PM CST (1/12)
Length of Visible Light 9h 58m
Length of Day
8h 48m
New Moon, 1% of the Moon is Illuminated
Jan 12
New Moon
Jan 18
First Quarter
Jan 26
Full
Feb 3
Last Quarter
Feb 10
New

Hourly Weather History & Observations

Time (CST) Temp. Windchill Dew Point Humidity Pressure Visibility Wind Dir Wind Speed Gust Speed Precip Events Conditions
12:15 AM 5.0 °F - 1.4 °F 85% 29.56 in 1.5 mi North - - 0.06 in Snow Light Snow
12:55 AM 5.0 °F - 1.4 °F 85% 29.57 in 1.0 mi North - - 0.22 in Snow Light Snow
1:15 AM 5.0 °F - 1.4 °F 85% 29.58 in 1.8 mi North - - 0.01 in Snow Light Snow
1:35 AM 3.2 °F - 1.4 °F 92% 29.59 in 1.8 mi North - - 0.02 in Snow Light Snow
1:55 AM 3.2 °F - -0.4 °F 85% 29.61 in 1.8 mi North - - 0.06 in Snow Light Snow
2:15 AM 3.2 °F - -0.4 °F 85% 29.63 in 1.5 mi North - - 0.04 in Snow Light Snow
2:35 AM 3.2 °F - -0.4 °F 85% 29.64 in 1.2 mi North - - 0.26 in Snow Light Snow
2:55 AM 1.4 °F - -0.4 °F 92% 29.66 in 1.8 mi North - - 0.34 in Snow Light Snow
3:15 AM 1.4 °F -22.3 °F -0.4 °F 92% 29.67 in 2.0 mi NNW 25.3 mph 36.8 mph 0.04 in Snow Light Snow
3:35 AM 1.4 °F -23.5 °F -0.4 °F 92% 29.68 in 1.5 mi NNW 28.8 mph 33.4 mph 0.11 in Snow Light Snow
3:55 AM 1.4 °F -23.9 °F -0.4 °F 92% 29.69 in 2.0 mi NNW 29.9 mph 38.0 mph 0.19 in Snow Light Snow
4:15 AM 1.4 °F -23.5 °F -0.4 °F 92% 29.69 in 2.5 mi NNW 28.8 mph 35.7 mph 0.01 in Snow Light Snow
4:35 AM -0.4 °F -26.7 °F -2.2 °F 92% 29.71 in 2.5 mi NNW 31.1 mph 36.8 mph 0.04 in Snow Light Snow
4:55 AM -0.4 °F -26.7 °F -2.2 °F 92% 29.72 in 1.5 mi NNW 31.1 mph 38.0 mph 0.06 in Snow Light Snow
5:15 AM -0.4 °F -26.4 °F -2.2 °F 92% 29.73 in 1.8 mi NNW 29.9 mph 34.5 mph 0.01 in Snow Light Snow
5:35 AM -0.4 °F -25.2 °F -2.2 °F 92% 29.74 in 1.2 mi NNW 26.5 mph 36.8 mph 0.05 in Snow Light Snow
5:55 AM -0.4 °F -25.6 °F -2.2 °F 92% 29.75 in 1.2 mi NNW 27.6 mph 39.1 mph 0.09 in Snow Light Snow
6:15 AM -0.4 °F -25.2 °F -4.0 °F 85% 29.76 in 1.5 mi NNW 26.5 mph 38.0 mph 0.01 in Snow Light Snow
6:35 AM -0.4 °F -25.2 °F -4.0 °F 85% 29.78 in 1.8 mi NNW 26.5 mph 38.0 mph 0.03 in Snow Light Snow
6:55 AM -0.4 °F -26.0 °F -4.0 °F 85% 29.79 in 1.8 mi NNW 28.8 mph 39.1 mph 0.06 in Snow Light Snow
7:15 AM -0.4 °F -25.6 °F -4.0 °F 85% 29.80 in 2.0 mi NNW 27.6 mph 38.0 mph 0.01 in Snow Light Snow
7:35 AM -0.4 °F -25.2 °F -4.0 °F 85% 29.82 in 3.0 mi NNW 26.5 mph 32.2 mph 0.03 in Snow Light Snow
7:55 AM -0.4 °F -25.6 °F -4.0 °F 85% 29.83 in 3.0 mi North 27.6 mph 36.8 mph 0.03 in Snow Light Snow
8:15 AM -0.4 °F -24.7 °F -4.0 °F 85% 29.84 in 2.5 mi NNW 25.3 mph 34.5 mph N/A Rain Light Freezing Rain
8:35 AM -0.4 °F -24.3 °F -4.0 °F 85% 29.85 in 3.0 mi North 24.2 mph 33.4 mph N/A Rain Light Freezing Rain
8:55 AM -0.4 °F -24.7 °F -4.0 °F 85% 29.85 in 3.0 mi NNW 25.3 mph 34.5 mph N/A Rain Light Freezing Rain
9:15 AM -0.4 °F -25.6 °F -4.0 °F 85% 29.86 in 2.5 mi NNW 27.6 mph 34.5 mph N/A Rain Light Freezing Rain
9:35 AM -0.4 °F -23.8 °F -4.0 °F 85% 29.86 in 7.0 mi NNW 23.0 mph 29.9 mph N/A   Overcast
9:55 AM -0.4 °F -23.3 °F -4.0 °F 85% 29.87 in 9.0 mi NNW 21.9 mph - N/A Rain Light Freezing Rain
10:15 AM -0.4 °F -20.5 °F -2.2 °F 92% 29.89 in 5.0 mi NNW 16.1 mph 27.6 mph N/A   Mostly Cloudy
10:35 AM -0.4 °F -22.3 °F -2.2 °F 92% 29.90 in 5.0 mi NNW 19.6 mph 27.6 mph N/A   Overcast
10:55 AM -0.4 °F -22.3 °F -2.2 °F 92% 29.92 in 3.0 mi NNW 19.6 mph 27.6 mph N/A   Overcast
11:15 AM -0.4 °F -24.3 °F -2.2 °F 92% 29.92 in 2.5 mi NNW 24.2 mph 28.8 mph N/A   Overcast
11:35 AM -0.4 °F -23.8 °F -4.0 °F 85% 29.94 in 4.0 mi NNW 23.0 mph 29.9 mph N/A   Overcast
11:55 AM -0.4 °F -22.3 °F -4.0 °F 85% 29.94 in 5.0 mi NNW 19.6 mph 31.1 mph N/A   Overcast
12:35 PM -0.4 °F -21.7 °F -4.0 °F 85% 29.95 in 9.0 mi NNW 18.4 mph - N/A   Overcast
12:55 PM -0.4 °F -23.3 °F -2.2 °F 92% 29.95 in 5.0 mi NNW 21.9 mph 27.6 mph N/A   Overcast
1:15 PM -0.4 °F -22.8 °F -2.2 °F 92% 29.96 in 3.0 mi NNW 20.7 mph 29.9 mph N/A   Overcast
1:35 PM -0.4 °F -25.6 °F -4.0 °F 85% 29.97 in 4.0 mi NNW 27.6 mph 31.1 mph N/A   Overcast
1:55 PM -0.4 °F -22.8 °F -2.2 °F 92% 29.98 in 7.0 mi NNW 20.7 mph 28.8 mph N/A   Overcast
2:15 PM -0.4 °F -23.3 °F -2.2 °F 92% 30.00 in 5.0 mi NNW 21.9 mph 27.6 mph N/A   Overcast
2:35 PM -0.4 °F -22.3 °F -4.0 °F 85% 30.01 in 5.0 mi NW 19.6 mph 28.8 mph N/A   Overcast
2:55 PM -0.4 °F -24.3 °F -4.0 °F 85% 30.02 in 10.0 mi NNW 24.2 mph 28.8 mph N/A   Overcast
3:15 PM -0.4 °F -22.8 °F -4.0 °F 85% 30.03 in 10.0 mi NNW 20.7 mph 26.5 mph N/A   Overcast
3:35 PM -0.4 °F -23.8 °F -4.0 °F 85% 30.04 in 10.0 mi NNW 23.0 mph 28.8 mph N/A   Mostly Cloudy
3:55 PM -0.4 °F -23.3 °F -4.0 °F 85% 30.04 in 10.0 mi NNW 21.9 mph 27.6 mph N/A   Mostly Cloudy
4:15 PM -0.4 °F -21.7 °F -5.8 °F 78% 30.05 in 10.0 mi NW 18.4 mph 24.2 mph N/A   Scattered Clouds
4:35 PM -0.4 °F -22.3 °F -5.8 °F 78% 30.05 in 10.0 mi NW 19.6 mph 24.2 mph N/A   Partly Cloudy
4:55 PM -0.4 °F -22.8 °F -5.8 °F 78% 30.05 in 10.0 mi NNW 20.7 mph 27.6 mph N/A   Mostly Cloudy
5:15 PM -0.4 °F -22.3 °F -7.6 °F 72% 30.06 in 10.0 mi NNW 19.6 mph 23.0 mph N/A   Mostly Cloudy
5:35 PM -2.2 °F -24.1 °F -7.6 °F 78% 30.06 in 10.0 mi NW 18.4 mph 23.0 mph N/A   Partly Cloudy
6:15 PM -0.4 °F -20.5 °F -7.6 °F 72% 30.08 in 10.0 mi NNW 16.1 mph - N/A   Clear
6:35 PM -2.2 °F -24.7 °F -7.6 °F 78% 30.07 in 10.0 mi NW 19.6 mph 24.2 mph N/A   Clear
6:55 PM -2.2 °F -24.1 °F -7.6 °F 78% 30.08 in 10.0 mi NW 18.4 mph 24.2 mph N/A   Clear
7:15 PM -2.2 °F -23.5 °F -7.6 °F 78% 30.08 in 10.0 mi NW 17.3 mph - N/A   Clear
7:35 PM -2.2 °F -23.5 °F -7.6 °F 78% 30.09 in 10.0 mi NW 17.3 mph 21.9 mph N/A   Clear
7:55 PM -2.2 °F -24.1 °F -7.6 °F 78% 30.08 in 10.0 mi NW 18.4 mph - N/A   Clear
8:15 PM -2.2 °F -23.5 °F -7.6 °F 78% 30.08 in 10.0 mi NW 17.3 mph 23.0 mph N/A   Clear
8:35 PM -4.0 °F -24.5 °F -9.4 °F 78% 30.08 in 10.0 mi NW 15.0 mph - N/A   Clear
8:55 PM -4.0 °F -24.5 °F -9.4 °F 78% 30.09 in 10.0 mi NW 15.0 mph - N/A   Clear
9:15 PM -4.0 °F -23.7 °F -9.4 °F 78% 30.10 in 10.0 mi NW 13.8 mph - N/A   Clear
9:35 PM -4.0 °F -23.0 °F -9.4 °F 78% 30.10 in 10.0 mi NNW 12.7 mph - N/A   Clear
9:55 PM -4.0 °F -22.1 °F -9.4 °F 78% 30.11 in 10.0 mi NW 11.5 mph - N/A   Clear
10:15 PM -5.8 °F -24.4 °F -9.4 °F 84% 30.11 in 10.0 mi NW 11.5 mph - N/A   Clear
10:35 PM -5.8 °F -23.4 °F -9.4 °F 84% 30.12 in 10.0 mi NW 10.4 mph - N/A   Clear
10:55 PM -5.8 °F -21.2 °F -11.2 °F 77% 30.13 in 10.0 mi NW 8.1 mph - N/A   Clear
11:15 PM -5.8 °F -19.9 °F -11.2 °F 77% 30.13 in 10.0 mi NW 6.9 mph - N/A   Clear
11:35 PM -7.6 °F -24.6 °F -11.2 °F 84% 30.13 in 10.0 mi NW 9.2 mph - N/A   Clear
11:55 PM -7.6 °F -23.4 °F -11.2 °F 84% 30.12 in 10.0 mi NW 8.1 mph - N/A   Clear